Location: Unspecified
(49.9820°N, 20.4363°E)
Time: 02:34:24
(UTC+02:00)

ISS - Visible Passes

Search period start: 17 July 2019 00:00
Search period end: 27 July 2019 00:00
Orbit: 409 x 418 km, 51.6° (Epoch: 17 July)

Date Brightness Start Highest point End Pass type
(mag) Time Alt. Az. Time Alt. Az. Time Alt. Az.
17 Jul -3.4 00:44:29 10° W 00:47:48 65° N 00:51:07 10° ENE visible
17 Jul -3.8 02:21:18 10° WNW 02:24:39 83° NNE 02:27:58 10° ESE visible
17 Jul -2.9 03:58:11 10° W 04:01:07 29° SSW 04:04:03 10° SSE visible
17 Jul -3.3 22:18:47 10° SW 22:21:55 38° SSE 22:25:02 10° E visible
17 Jul -3.6 23:55:09 10° W 23:58:30 74° N 00:01:49 10° ENE visible
18 Jul -3.6 01:32:00 10° WNW 01:35:21 70° N 01:38:39 10° E visible
18 Jul -3.5 03:08:47 10° W 03:11:58 43° SSW 03:15:07 10° SE visible
18 Jul -2.8 21:29:54 10° SSW 21:32:45 26° SE 21:35:36 10° E visible
18 Jul -3.9 23:05:50 10° WSW 23:09:11 89° N 23:12:32 10° ENE visible
19 Jul -3.4 00:42:41 10° W 00:46:01 64° N 00:49:19 10° E visible
19 Jul -3.9 02:19:26 10° WNW 02:22:44 62° SSW 02:26:00 10° ESE visible
19 Jul -2.1 03:56:59 10° WSW 03:58:55 15° SW 04:00:50 10° S visible
19 Jul -3.9 22:16:34 10° WSW 22:19:53 71° SSE 22:23:13 10° ENE visible
19 Jul -3.4 23:53:20 10° W 23:56:39 63° N 23:59:58 10° E visible
20 Jul -4.0 01:30:07 10° WNW 01:33:28 83° SSW 01:36:47 10° ESE visible
20 Jul -2.4 03:07:10 10° W 03:11:57 13° S 03:12:26 10° SSE visible
20 Jul -3.6 21:27:23 10° SW 21:30:37 50° SSE 21:33:53 10° ENE visible
20 Jul -3.4 23:03:58 10° W 23:07:18 67° N 23:10:37 10° ENE visible
21 Jul -3.8 00:40:48 10° WNW 00:44:08 79° NNE 00:45:18 38° E visible
21 Jul -1.4 02:17:38 10° W 02:18:02 12° W 02:18:02 12° W visible
21 Jul -3.6 22:14:36 10° W 22:17:56 77° N 22:21:16 10° ENE visible
21 Jul -3.5 23:51:27 10° WNW 23:54:47 68° N 23:56:39 24° E visible
22 Jul -1.9 01:28:12 10° WNW 01:29:25 20° W 01:29:25 20° W visible
22 Jul -3.8 21:25:14 10° WSW 21:28:35 86° SSE 21:31:57 10° ENE visible
22 Jul -3.4 23:02:05 10° W 23:05:24 63° N 23:08:24 12° E visible
23 Jul -3.0 00:38:50 10° WNW 00:41:11 41° W 00:41:11 41° W visible
23 Jul -3.3 22:12:41 10° W 22:16:01 63° N 22:19:19 10° E visible
23 Jul -3.9 23:49:28 10° WNW 23:52:49 88° SSW 23:53:07 72° ESE visible
24 Jul -3.4 21:23:15 10° W 21:26:36 69° N 21:29:56 10° ENE visible
24 Jul -3.7 23:00:06 10° WNW 23:03:27 75° N 23:05:09 27° E visible
25 Jul -1.6 00:36:55 10° W 00:37:57 18° W 00:37:57 18° W visible
25 Jul -3.4 22:10:42 10° WNW 22:14:03 66° N 22:17:13 11° E visible
25 Jul -3.1 23:47:28 10° WNW 23:50:01 42° WSW 23:50:01 42° WSW visible
26 Jul -3.3 21:21:17 10° W 21:24:37 63° N 21:27:56 10° E visible
26 Jul -3.9 22:58:02 10° WNW 23:01:23 73° SSW 23:02:08 49° SE visible
